FW9451 Weather Reports


Display with metric or nautical units.
time (UTC)temp
F
wind
direction
speed
MPH
gust
MPH
rain 1hr
in
rain 24hr
in
rain mn
in
humidity
%
barometer
mb
20260503220050 49 48 6.0 17.0 0.00 0.11 0.00 46 1005.0
20260503214600 49 316 7.0 21.0 0.00 0.20 0.00 47 1005.0
20260503213052 49 224 6.0 25.0 0.00 0.20 0.00 47 1005.0
20260503211554 50 257 8.0 22.0 0.00 0.20 0.00 48 1004.8
20260503210049 50 300 8.0 20.0 0.00 0.20 0.00 49 1004.7
20260503204557 50 327 8.0 20.0 0.00 0.26 0.00 50 1004.7
20260503203055 50 299 7.0 17.0 0.00 0.26 0.00 49 1004.7
20260503201551 51 264 8.0 18.0 0.00 0.26 0.00 48 1004.7
20260503200053 50 319 11.0 21.0 0.00 0.26 0.00 50 1004.8
20260503194556 50 315 7.0 21.0 0.00 0.27 0.00 51 1004.9
20260503193110 50 44 8.0 20.0 0.00 0.27 0.00 51 1005.0
20260503191553 50 325 9.0 19.0 0.00 0.27 0.00 53 1005.0
20260503190108 49 229 9.0 19.0 0.00 0.27 0.00 55 1004.9
20260503184553 49 351 10.0 23.0 0.00 0.27 0.00 55 1004.9
20260503183104 50 314 6.0 17.0 0.00 0.27 0.00 55 1004.8
20260503181554 50 336 6.0 16.0 0.00 0.27 0.00 56 1004.7
20260503180106 50 17 11.0 27.0 0.00 0.27 0.00 54 1004.8
20260503174558 48 346 9.0 20.0 0.00 0.27 0.00 60 1004.9
20260503173113 47 360 8.0 17.0 0.00 0.27 0.00 67 1005.0
20260503171553 46 351 11.0 21.0 0.00 0.27 0.00 67 1005.1
20260503100107 39 360 2.0 9.0 0.00 0.32 0.00 94 1007.6
20260503081549 39 17 1.0 5.0 0.00 0.32 0.00 94 1008.8
20260503071606 40 9 2.0 10.0 0.00 0.32 0.00 94 1008.9
20260503054551 41 53 3.0 8.0 0.00 0.32 0.00 94 1009.7
20260503053053 41 54 3.0 8.0 0.00 0.32 0.00 94 1009.9
20260503051556 41 22 1.0 8.0 0.00 0.32 0.00 94 1010.2
20260503050054 41 44 1.0 5.0 0.00 0.32 0.00 94 1010.3
20260503044554 41 333 2.0 8.0 0.00 0.32 0.00 94 1010.5
20260503043055 41 33 3.0 11.0 0.00 0.32 0.00 94 1010.4
20260503041549 41 15 2.0 8.0 0.00 0.32 0.00 94 1010.8
20260503040050 41 45 3.0 8.0 0.00 0.32 0.00 94 1010.8
20260503034553 41 42 4.0 10.0 0.00 0.32 0.32 94 1010.9
20260503033055 41 38 4.0 9.0 0.00 0.32 0.32 94 1011.2
20260503031550 41 55 3.0 12.0 0.00 0.32 0.32 94 1011.3
20260503030051 41 53 5.0 9.0 0.00 0.32 0.32 94 1011.2
20260503024552 42 24 2.0 8.0 0.01 0.32 0.32 94 1011.5
20260503023048 42 47 4.0 10.0 0.01 0.32 0.32 94 1011.6
20260503021550 42 36 3.0 10.0 0.02 0.32 0.32 94 1011.5
20260503020053 42 360 3.0 10.0 0.02 0.32 0.32 94 1011.7
20260503014620 42 54 3.0 11.0 0.03 0.31 0.31 94 1011.9
20260503013050 42 47 4.0 9.0 0.04 0.31 0.31 93 1012.1
20260503011558 42 38 4.0 10.0 0.03 0.30 0.30 94 1012.1
20260503010054 43 44 4.0 9.0 0.03 0.30 0.30 94 1012.2
20260503004559 43 50 3.0 6.0 0.02 0.28 0.28 93 1012.1
20260503003106 43 28 1.0 10.0 0.01 0.27 0.27 93 1012.1
20260503001554 43 24 3.0 10.0 0.02 0.27 0.27 93 1011.9
20260503000051 43 30 5.0 10.0 0.03 0.27 0.27 93 1011.6
20260502234557 43 57 4.0 8.0 0.02 0.26 0.26 93 1011.7
20260502233053 43 41 3.0 6.0 0.03 0.26 0.26 93 1011.8
20260502231555 43 64 2.0 7.0 0.03 0.25 0.25 93 1011.7
20260502230100 43 68 3.0 8.0 0.03 0.24 0.24 93 1011.7
20260502224609 44 32 4.0 8.0 0.03 0.24 0.24 93 1011.5
20260502223102 44 12 4.0 8.0 0.06 0.23 0.23 93 1011.5
20260502221556 44 52 2.0 4.0 0.07 0.22 0.22 92 1011.6